Wind_Speed
19 20 20 21 21 21 22 22 21 21 20 20 21 23 25 26 26 27 27 25 25 24 25 26 27 28 30 30 29 29 28 26 27 28 29 30 29 28 27 27 26 26 24
19 20 21 22 22 21 20 20 20 19 18 18 17 17 18 20 22 23 23 24 24 25 26 27 28 29 30 30 31 30 30 30 30 30 32 32 33 32 30 30 30 29 27
20 20 21 21 20 20 19 19 18 17 17 16 16 16 15 15 16 17 18 18 19 20 21 23 24 25 26 26 26 27 27 28 31 33 33 31 33 36 36 34 33 33 31
20 20 21 21 20 19 19 18 17 15 14 15 15 14 13 11 10 11 13 14 15 16 17 18 19 20 21 22 23 23 24 25 27 30 32 35 36 34 36 39 42 42 32
20 20 21 21 20 19 18 17 15 15 13 13 13 12 11 11 8 6 6 7 9 11 13 15 17 19 20 21 21 22 23 24 26 28 31 34 36 37 39 37 38 36 33
20 20 21 21 20 18 16 15 13 10 11 14 13 11 11 7 3 2 1 6 6 8 12 15 16 17 17 18 18 19 19 21 24 27 30 33 33 36 38 37 35 36 34
20 20 21 21 20 18 15 14 13 11 7 12 12 10 5 5 3 1 5 5 3 9 13 14 16 18 17 15 14 15 17 20 23 26 30 33 35 31 33 34 39 36 34
19 20 19 18 18 18 16 12 11 12 11 11 13 9 7 3 3 9 4 6 8 11 12 12 14 14 12 12 11 11 13 14 13 22 30 32 31 30 27 30 32 35 31
19 19 20 19 19 19 19 15 10 8 10 9 9 5 4 4 15 2 8 4 10 14 12 12 12 12 8 10 9 10 13 17 22 25 27 25 24 24 24 26 28 27 29
20 19 19 19 18 18 18 19 11 9 7 8 5 5 5 7 4 8 9 15 15 20 10 13 10 10 11 11 11 13 15 18 19 23 24 22 15 14 24 25 23 24 25
21 19 18 18 19 19 19 19 11 8 8 9 8 8 7 7 4 8 17 16 18 21 13 12 12 10 8 10 11 13 15 17 17 19 21 18 16 5 18 19 16 21 17
20 19 18 19 18 18 18 18 13 9 9 10 9 9 9 7 8 10 15 16 20 15 18 7 7 10 10 11 12 14 15 13 16 19 19 22 19 13 23 10 16 18 23
20 18 18 18 17 18 17 17 16 12 9 10 9 10 10 11 11 11 14 17 18 18 10 13 10 12 12 14 13 14 14 11 16 19 18 16 18 13 6 14 4 12 9
20 18 19 19 18 18 17 16 15 14 12 9 11 12 14 12 13 14 17 19 19 10 12 9 15 11 14 18 14 12 12 11 13 17 17 15 12 13 11 10 8 7 8
19 19 19 20 19 19 18 16 15 14 14 12 10 11 11 10 13 15 17 17 16 13 15 7 10 13 17 18 18 14 11 13 11 12 15 14 11 8 6 5 4 2 3
18 18 18 19 19 20 19 18 17 15 15 14 13 13 13 14 14 15 17 17 16 17 18 13 19 21 18 16 16 17 13 13 13 12 14 14 12 11 8 6 4 3 4
20 20 20 21 21 21 21 21 20 18 18 17 16 16 15 15 15 16 18 18 17 17 23 25 24 20 19 18 17 15 14 12 12 11 14 11 9 10 9 8 6 4 3
24 24 24 24 24 23 22 23 23 21 21 20 18 19 18 18 18 18 18 18 18 17 20 23 24 22 19 19 18 16 13 14 14 13 12 10 8 6 6 6 6 5 4
25 25 26 27 27 26 25 24 24 24 24 23 21 21 20 20 20 20 20 19 18 18 19 22 23 21 20 19 19 17 14 13 14 15 14 12 10 7 5 4 4 3 3
26 27 27 28 27 27 26 25 24 25 25 25 25 24 22 22 21 20 20 20 19 19 20 21 22 23 21 19 18 17 16 15 15 14 14 12 10 8 7 5 4 4 4
24 25 26 25 25 24 23 23 24 25 25 26 26 26 25 23 22 22 22 20 20 20 20 21 23 22 21 20 18 17 17 16 16 14 13 11 10 9 8 8 8 8 8
22 24 25 25 24 23 22 22 22 24 25 27 27 26 26 26 24 23 23 22 21 21 21 22 22 22 21 19 18 17 17 16 14 12 11 12 11 10 10 10 10 10 11
22 21 21 21 22 22 21 21 22 24 25 26 26 26 25 26 26 25 24 23 24 23 23 22 23 21 22 18 19 18 17 16 15 15 14 14 13 12 12 12 12 12 12
20 20 19 18 19 18 18 18 19 21 23 23 23 24 25 25 26 26 25 26 27 25 25 23 22 21 21 19 19 18 17 17 17 16 15 16 14 13 13 13 14 13 13
19 19 19 18 18 17 17 17 17 17 19 20 21 22 23 24 24 24 26 28 28 29 26 24 24 23 22 21 20 19 19 18 17 17 16 16 16 15 14 14 15 14 13
20 20 18 17 17 17 16 16 15 15 17 17 19 21 23 23 23 24 26 28 30 30 27 25 26 25 23 22 21 19 19 19 18 16 17 17 17 13 8 12 13 11 11
Wind_Direction
319 317 316 314 311 308 306 305 304 303 302 296 289 281 275 271 270 271 272 273 275 278 279 279 279 280 282 281 280 277 275 273 269 265 263 262 262 262 261 259 259 260 254
321 320 320 318 316 314 313 312 312 311 310 308 305 296 286 278 272 271 272 273 274 277 281 284 285 285 285 284 283 281 276 272 272 270 266 264 262 261 261 259 257 253 254
330 328 327 324 321 318 316 315 313 313 314 315 315 312 305 295 286 278 276 277 279 282 284 286 287 287 287 287 286 284 279 273 266 265 266 268 265 262 260 259 255 250 248
336 335 334 331 329 325 322 322 320 318 319 320 319 317 314 307 295 285 280 280 282 285 288 289 292 293 292 292 293 293 289 282 274 270 267 265 262 261 260 264 256 247 244
339 338 337 334 329 325 323 322 322 322 327 321 321 325 318 307 298 301 299 294 291 294 294 293 297 300 298 297 296 293 291 289 285 282 277 271 265 261 258 261 261 255 257
341 341 342 342 334 325 321 314 313 323 326 317 327 332 319 329 331 256 318 317 303 301 299 306 308 309 311 304 299 299 301 303 298 291 284 277 273 268 262 254 252 254 256
342 342 344 349 343 333 326 320 321 329 316 314 330 354 13 355 127 28 309 342 318 315 312 311 312 315 313 312 313 308 307 307 306 304 294 280 269 268 264 257 249 250 251
335 340 340 342 348 345 337 322 318 331 333 346 352 5 357 42 132 330 227 346 340 322 320 319 322 321 322 322 322 324 335 346 339 337 316 286 270 261 263 259 252 246 243
327 333 336 337 339 340 342 332 310 314 324 345 358 23 350 331 330 209 311 321 328 335 328 329 329 330 330 335 328 327 336 344 352 341 344 326 267 260 263 261 250 239 238
322 322 328 331 331 333 336 336 314 295 297 316 349 322 321 296 314 311 314 338 341 341 331 330 340 342 336 337 348 342 340 346 339 351 349 348 317 262 254 258 249 235 233
319 313 317 324 331 330 331 335 319 300 291 289 293 298 310 318 318 308 315 326 332 334 327 331 332 337 337 343 353 353 350 354 356 0 1 357 31 64 329 248 238 228 221
312 307 308 314 324 325 326 332 324 298 292 288 289 286 286 286 290 293 297 311 318 320 324 325 333 346 348 344 344 344 337 359 1 2 4 10 15 352 328 149 143 148 159
308 305 301 302 310 316 321 326 329 316 297 287 281 280 281 278 278 288 294 299 304 309 314 317 317 329 335 338 338 340 346 358 357 1 9 14 16 16 63 73 144 151 160
303 303 296 295 299 303 314 317 321 321 312 290 278 280 281 273 265 280 288 295 305 298 303 295 292 297 312 324 323 321 332 344 355 347 355 5 11 21 44 74 102 99 123
300 298 297 293 292 294 300 307 309 308 304 302 286 287 293 288 282 284 286 289 288 297 309 313 303 303 309 315 318 313 308 320 326 323 333 338 349 2 17 29 55 90 146
304 301 299 295 289 287 288 291 297 297 292 291 287 286 286 285 283 287 293 290 284 270 275 286 297 310 310 306 305 313 313 305 307 310 318 324 325 330 338 347 346 322 300
304 303 300 298 294 290 285 282 284 287 287 284 281 279 279 277 278 284 288 286 286 275 274 285 294 304 307 305 307 311 314 309 303 305 304 310 315 313 323 334 333 332 315
296 295 297 297 295 293 287 281 278 279 281 282 281 278 279 276 277 279 283 281 280 276 275 282 290 297 298 300 304 305 303 305 308 308 309 306 306 298 289 288 291 299 298
293 292 293 293 291 286 283 282 278 275 275 277 278 279 279 276 279 280 282 282 279 274 273 278 286 291 292 295 299 297 294 292 293 302 307 308 304 298 283 266 262 261 262
294 293 292 292 291 284 278 277 278 277 274 273 273 275 277 277 279 279 280 281 279 277 276 277 279 284 287 290 290 289 285 283 284 286 289 290 293 295 291 286 279 273 274
297 295 294 292 291 285 279 279 277 276 275 274 271 270 273 276 277 277 277 278 277 276 276 278 279 282 284 286 285 284 280 279 280 281 278 274 275 277 279 276 279 283 289
303 300 297 295 292 288 282 277 276 274 273 273 274 272 272 273 274 275 275 275 272 272 273 274 277 278 282 280 278 277 276 276 279 273 269 269 266 267 267 267 274 282 290
308 307 306 300 297 293 289 284 276 274 273 272 273 273 271 270 271 272 272 274 273 271 270 272 274 276 277 277 274 273 269 264 263 264 270 271 270 268 264 264 269 277 288
313 313 313 309 303 301 296 290 282 277 277 276 274 274 275 274 270 270 269 269 271 272 270 270 271 272 272 273 269 268 264 259 258 258 260 269 266 262 257 257 263 271 282
318 315 315 313 308 308 303 297 291 287 283 281 279 276 277 277 276 271 268 269 270 269 268 268 269 270 269 267 266 263 260 260 260 263 261 263 266 262 259 257 261 271 273
324 322 319 314 312 309 306 303 301 297 293 289 282 280 280 281 279 274 270 269 268 270 272 269 267 266 265 263 260 257 257 259 262 271 264 252 261 259 263 254 254 257 265
Height
1537 1535 1532 1530 1528 1526 1523 1521 1519 1517 1516 1514 1513 1511 1511 1511 1511 1511 1511 1512 1512 1512 1512 1512 1511 1511 1510 1509 1508 1508 1508 1507 1507 1507 1507 1507 1507 1507 1508 1508 1508 1509 1510
1534 1532 1529 1527 1524 1521 1519 1517 1514 1513 1511 1509 1508 1507 1506 1505 1505 1506 1506 1507 1507 1507 1506 1506 1505 1504 1503 1502 1501 1501 1500 1501 1500 1500 1500 1500 1500 1501 1501 1501 1501 1502 1503
1532 1529 1526 1523 1521 1518 1516 1513 1512 1510 1508 1507 1505 1503 1502 1501 1500 1501 1501 1502 1502 1502 1501 1500 1499 1498 1497 1496 1494 1493 1492 1492 1492 1492 1492 1492 1492 1492 1493 1493 1493 1493 1494
1530 1527 1524 1521 1518 1515 1513 1511 1509 1507 1506 1504 1502 1501 1499 1498 1497 1497 1497 1498 1498 1497 1497 1496 1494 1493 1492 1490 1489 1488 1486 1485 1484 1483 1483 1482 1483 1483 1484 1484 1483 1476 1483
1529 1526 1523 1520 1516 1513 1511 1508 1507 1505 1503 1501 1500 1498 1497 1495 1495 1495 1495 1495 1495 1494 1492 1491 1490 1489 1488 1486 1484 1483 1481 1479 1478 1476 1475 1474 1473 1473 1474 1475 1474 1475 1477
1528 1525 1522 1518 1515 1511 1509 1507 1505 1504 1502 1499 1498 1496 1494 1493 1493 1493 1493 1493 1492 1491 1489 1488 1487 1485 1483 1481 1480 1478 1477 1475 1472 1470 1468 1465 1464 1463 1463 1465 1465 1467 1470
1526 1523 1521 1517 1513 1510 1507 1504 1502 1502 1501 1498 1495 1495 1493 1492 1492 1493 1493 1492 1490 1489 1487 1485 1483 1481 1479 1477 1476 1475 1472 1470 1466 1464 1460 1456 1453 1453 1453 1455 1457 1459 1463
1525 1522 1519 1516 1513 1509 1506 1503 1501 1499 1499 1497 1495 1494 1493 1493 1491 1490 1490 1490 1489 1487 1485 1483 1481 1478 1477 1475 1473 1472 1470 1466 1463 1459 1451 1444 1443 1443 1444 1445 1447 1451 1455
1523 1519 1517 1514 1512 1508 1505 1501 1499 1498 1498 1497 1496 1496 1495 1494 1491 1489 1489 1488 1487 1485 1482 1480 1478 1476 1474 1473 1471 1469 1467 1463 1460 1454 1445 1437 1433 1434 1437 1437 1439 1441 1446
1521 1518 1515 1513 1510 1507 1503 1499 1497 1497 1496 1496 1496 1495 1494 1493 1492 1489 1486 1486 1485 1483 1480 1478 1476 1474 1473 1471 1469 1467 1464 1460 1457 1451 1444 1437 1431 1429 1432 1432 1434 1436 1441
1518 1516 1513 1511 1508 1505 1502 1498 1495 1494 1494 1494 1494 1493 1492 1491 1491 1490 1485 1484 1483 1481 1478 1475 1474 1472 1471 1469 1467 1465 1462 1459 1456 1450 1444 1437 1432 1428 1429 1427 1429 1431 1438
1515 1512 1509 1508 1505 1503 1500 1497 1493 1492 1491 1491 1491 1491 1490 1490 1489 1488 1485 1482 1480 1479 1475 1473 1471 1470 1469 1467 1465 1463 1461 1458 1455 1450 1445 1440 1434 1429 1429 1429 1427 1428 1432
1511 1509 1505 1504 1502 1501 1498 1495 1492 1490 1489 1488 1488 1488 1487 1487 1487 1486 1484 1481 1478 1475 1473 1470 1469 1468 1467 1465 1463 1460 1458 1457 1454 1450 1446 1442 1437 1434 1433 1429 1431 1431 1435
1506 1504 1502 1500 1499 1497 1495 1492 1490 1488 1486 1485 1485 1484 1483 1483 1483 1482 1481 1479 1475 1473 1470 1469 1467 1466 1465 1462 1460 1458 1457 1455 1453 1450 1447 1444 1440 1437 1437 1437 1436 1436 1437
1501 1499 1497 1496 1494 1493 1491 1489 1487 1486 1484 1483 1482 1481 1480 1480 1479 1478 1477 1476 1475 1472 1467 1465 1465 1464 1462 1460 1458 1455 1454 1453 1452 1450 1447 1444 1442 1440 1439 1438 1438 1438 1438
1497 1495 1493 1491 1489 1488 1487 1485 1484 1482 1481 1480 1479 1478 1477 1476 1475 1474 1473 1472 1470 1469 1466 1463 1462 1460 1458 1457 1455 1453 1451 1450 1449 1448 1447 1444 1442 1441 1439 1438 1437 1437 1438
1493 1490 1488 1486 1484 1482 1481 1480 1479 1478 1477 1476 1475 1474 1473 1471 1470 1469 1468 1467 1465 1464 1462 1460 1458 1457 1456 1454 1453 1451 1448 1447 1446 1445 1445 1444 1441 1439 1438 1437 1437 1437 1437
1487 1485 1483 1481 1479 1477 1475 1474 1473 1473 1472 1471 1471 1469 1468 1467 1466 1465 1463 1462 1460 1459 1458 1456 1454 1453 1452 1451 1449 1447 1446 1444 1443 1442 1442 1441 1440 1439 1438 1437 1436 1436 1436
1481 1479 1476 1474 1472 1470 1469 1468 1467 1467 1466 1465 1465 1463 1463 1462 1461 1460 1459 1458 1456 1455 1453 1451 1450 1448 1447 1446 1445 1443 1443 1442 1440 1439 1438 1438 1437 1437 1437 1436 1435 1435 1435
1474 1471 1469 1466 1464 1462 1461 1461 1460 1459 1459 1458 1458 1457 1456 1455 1455 1454 1454 1453 1452 1451 1450 1448 1446 1444 1442 1441 1440 1439 1438 1438 1437 1437 1435 1435 1434 1434 1434 1434 1433 1433 1432
1467 1464 1461 1460 1457 1455 1454 1454 1453 1452 1451 1450 1450 1450 1449 1449 1448 1448 1447 1447 1447 1446 1445 1443 1442 1440 1439 1438 1436 1435 1434 1434 1433 1432 1432 1431 1431 1431 1431 1430 1430 1429 1430
1460 1458 1455 1453 1451 1449 1448 1446 1445 1444 1444 1443 1442 1443 1443 1442 1442 1442 1441 1441 1440 1439 1439 1438 1436 1435 1435 1434 1433 1432 1431 1430 1430 1429 1428 1427 1427 1428 1428 1427 1427 1426 1426
1455 1452 1449 1446 1444 1442 1441 1439 1438 1436 1436 1435 1435 1435 1435 1435 1435 1434 1434 1434 1433 1433 1432 1432 1431 1430 1429 1429 1428 1427 1426 1425 1425 1426 1425 1424 1424 1423 1423 1424 1424 1424 1424
1449 1446 1443 1441 1438 1436 1434 1433 1431 1430 1429 1428 1428 1428 1428 1428 1428 1427 1426 1426 1425 1425 1424 1424 1424 1425 1424 1424 1423 1423 1422 1422 1421 1421 1421 1420 1419 1419 1419 1419 1419 1419 1419
1445 1442 1439 1436 1434 1432 1429 1427 1425 1424 1423 1422 1421 1421 1420 1420 1420 1420 1419 1418 1418 1417 1418 1418 1418 1418 1418 1418 1418 1418 1418 1418 1417 1417 1417 1416 1416 1416 1416 1415 1415 1415 1415
1440 1438 1435 1432 1429 1427 1424 1422 1420 1418 1417 1417 1416 1414 1414 1413 1413 1412 1410 1410 1409 1410 1412 1412 1412 1412 1411 1411 1411 1413 1413 1414 1415 1414 1413 1413 1412 1413 1412 1411 1411 1411 1411